Location: Hawks Ness
(60.2333°N, 1.1667°W)
Time: 07:17:43
(UTC+00:00)

NOSS 2-2 (C) - Pass Details

Date: 22 October 2019
Orbit: 490 x 1718 km, 63.3° (Epoch: 12 November)

Event Time Altitude Azimuth Distance (km) Brightness Sun altitude
Exits shadow 04:21:49 44° 206° (SSW) 802 3.8 -20.3°
Maximum altitude 04:22:57 65° 144° (SE) 661 3.7 -20.1°
Drops below altitude 10° 04:27:45 10° 63° (ENE) 2,217 7.5 -19.5°
Sets 04:30:29 0° 61° (ENE) 3,329 8.7 -19.2°
